EW9504 Weather Reports


time (UTC)temp
C
wind
direction
speed
KPH
gust
KPH
rain 1hr
cm
rain 24hr
cm
rain mn
cm
humidity
%
barometer
mb
20260510043018 23 143 0.0 4.8 0.00 0.61 0.61 90 1010.4
20260510041518 23 130 0.0 4.8 0.00 0.61 0.61 89 1010.3
20260510040017 23 129 0.0 4.8 0.00 0.61 0.61 88 1010.2
20260510034517 23 115 0.0 8.0 0.00 0.61 0.61 86 1010.3
20260510033016 23 119 1.6 11.3 0.00 0.61 0.61 86 1010.5
20260510031516 22 139 0.0 6.4 0.00 0.61 0.61 89 1010.3
20260510030014 22 129 0.0 4.8 0.00 0.61 0.61 94 1009.8
20260510024514 22 228 0.0 0.0 0.00 0.61 0.61 95 1009.4
20260510023013 22 228 0.0 0.0 0.00 0.61 0.61 95 1009.0
20260510021516 22 219 0.0 1.6 0.00 0.61 0.61 95 1008.7
20260510020013 22 136 0.0 1.6 0.00 0.61 0.61 95 1008.3
20260510014512 21 115 1.6 8.0 0.00 0.61 0.61 96 1007.7
20260510013011 21 20 0.0 1.6 0.08 0.61 0.61 95 1007.5
20260510011523 21 20 0.0 0.0 0.20 0.61 0.61 95 1007.3
20260510010010 21 20 0.0 3.2 0.28 0.61 0.61 94 1007.6
20260510004512 21 238 0.0 1.6 0.33 0.61 0.61 94 1006.9
20260510003010 20 248 0.0 3.2 0.30 0.56 0.56 93 1007.6
20260510001509 20 350 1.6 8.0 0.43 0.43 0.43 89 1008.0
20260510000008 22 53 4.8 17.7 0.33 0.33 0.33 84 1007.4
20260509234501 24 284 3.2 11.3 0.28 0.30 0.28 89 1006.9
20260509233000 26 9 0.0 3.2 0.28 0.30 0.28 87 1006.9
20260509231600 28 217 0.0 0.0 0.03 0.05 0.03 79 1007.1
20260509230101 30 217 0.0 0.0 0.00 0.03 0.00 69 1006.7
20260509224559 31 217 0.0 0.0 0.00 0.03 0.00 66 1006.4
20260509223106 32 129 0.0 1.6 0.00 0.03 0.00 64 1006.4
20260509221559 33 114 0.0 3.2 0.00 0.03 0.00 61 1006.2
20260509220100 33 21 0.0 0.0 0.00 0.03 0.00 61 1006.3
20260509214600 32 23 0.0 0.0 0.00 0.03 0.00 61 1006.4
20260509213056 33 121 0.0 0.0 0.00 0.03 0.00 61 1006.2
20260509211554 33 216 0.0 3.2 0.00 0.03 0.00 62 1006.3
20260509210100 33 32 0.0 3.2 0.00 0.03 0.00 63 1006.5
20260509204554 33 132 0.0 0.0 0.00 0.03 0.00 62 1006.7
20260509203048 33 229 1.6 6.4 0.00 0.03 0.00 62 1006.8
20260509201549 32 308 0.0 4.8 0.00 0.03 0.00 65 1007.1
20260509194544 31 304 0.0 6.4 0.00 0.03 0.00 67 1007.4
20260509193041 31 328 0.0 6.4 0.00 0.03 0.00 68 1007.6
20260509191541 31 17 0.0 0.0 0.00 0.03 0.00 66 1007.6
20260509190040 31 81 0.0 4.8 0.00 0.03 0.00 71 1007.5
20260509184553 31 60 0.0 0.0 0.00 0.10 0.00 69 1007.8
20260509183036 30 271 0.0 0.0 0.00 0.10 0.00 69 1008.0
20260509181545 30 210 0.0 6.4 0.00 0.10 0.00 71 1008.3
20260509180036 30 281 0.0 4.8 0.00 0.10 0.00 69 1008.6
20260509174538 32 128 0.0 4.8 0.00 0.15 0.00 72 1008.7
20260509173035 30 318 0.0 4.8 0.00 0.15 0.00 75 1009.1
20260509171534 30 15 0.0 4.8 0.00 0.15 0.00 77 1009.3
20260509170027 29 127 0.0 6.4 0.00 0.15 0.00 81 1009.5
20260509164524 28 4 0.0 0.0 0.00 0.18 0.00 83 1009.5
20260509163024 27 133 0.0 0.0 0.00 0.18 0.00 85 1009.5
20260509161520 27 133 0.0 0.0 0.00 0.18 0.00 87 1009.3
20260509160014 26 130 0.0 0.0 0.00 0.18 0.00 88 1009.4
20260509154516 26 130 0.0 0.0 0.00 0.23 0.00 89 1009.2
20260509153027 26 130 0.0 0.0 0.00 0.23 0.00 91 1009.2
20260509151510 25 130 0.0 0.0 0.00 0.23 0.00 93 1009.3
20260509150009 25 139 0.0 0.0 0.00 0.23 0.00 94 1009.1
20260509144514 25 139 0.0 0.0 0.00 0.23 0.00 96 1008.9
20260509143003 24 139 0.0 0.0 0.00 0.23 0.00 97 1008.7
20260509141503 24 139 0.0 0.0 0.00 0.23 0.00 98 1008.2
20260509140000 24 139 0.0 0.0 0.00 0.23 0.00 98 1008.1
20260509134613 24 139 0.0 0.0 0.00 0.23 0.00 99 1008.8
20260509133059 23 139 0.0 0.0 0.00 0.23 0.00 99 1009.2
20260509131601 23 139 0.0 0.0 0.00 0.23 0.00 99 1009.5
20260509124557 23 149 0.0 0.0 0.00 0.23 0.00 99 1008.9
20260509123130 23 131 0.0 0.0 0.00 0.23 0.00 99 1009.4
20260509121612 23 131 0.0 0.0 0.00 0.23 0.00 99 1009.3
20260509120113 23 131 0.0 0.0 0.00 0.23 0.00 99 1009.3
20260509114600 23 131 0.0 0.0 0.00 0.23 0.00 99 1009.1
20260509113055 22 131 0.0 0.0 0.00 0.23 0.00 99 1008.8
20260509111603 22 131 0.0 0.0 0.00 0.23 0.00 99 1008.6
20260509110051 23 131 0.0 0.0 0.00 0.23 0.00 99 1008.7
20260509104551 22 131 0.0 0.0 0.00 0.23 0.00 98 1008.5
20260509103101 23 131 0.0 0.0 0.00 0.23 0.00 99 1008.4
20260509101618 23 131 0.0 0.0 0.00 0.23 0.00 99 1008.6
20260509100050 23 131 0.0 0.0 0.00 0.23 0.00 98 1008.5
20260509094549 23 131 0.0 0.0 0.00 0.23 0.00 98 1007.9
20260509093049 23 131 0.0 0.0 0.00 0.23 0.00 98 1008.0
20260509091548 23 131 0.0 0.0 0.00 0.23 0.00 98 1008.0
20260509090053 23 131 0.0 0.0 0.00 0.23 0.00 98 1008.4
20260509084547 23 131 0.0 0.0 0.00 0.23 0.00 98 1008.3
20260509083046 23 131 0.0 0.0 0.00 0.23 0.00 98 1008.2
20260509081547 23 131 0.0 0.0 0.00 0.23 0.00 98 1008.1
20260509080048 23 131 0.0 0.0 0.00 0.23 0.00 98 1008.1
20260509074549 23 131 0.0 3.2 0.00 0.23 0.00 97 1007.9
20260509073054 23 113 0.0 0.0 0.00 0.23 0.00 97 1008.0
20260509071550 23 113 0.0 0.0 0.00 0.23 0.00 97 1008.5
20260509070046 23 113 0.0 0.0 0.00 0.23 0.00 97 1008.8
20260509064546 23 113 0.0 0.0 0.00 0.23 0.00 97 1008.9
20260509063044 23 113 0.0 1.6 0.00 0.23 0.00 97 1008.8
20260509061538 23 113 0.0 0.0 0.00 0.23 0.00 97 1008.7
20260509060039 23 113 0.0 1.6 0.00 0.23 0.00 97 1008.9
20260509054545 23 128 0.0 0.0 0.00 0.23 0.00 97 1009.0
20260509053034 23 133 0.0 0.0 0.00 0.23 0.00 97 1009.0
20260509051533 23 130 0.0 3.2 0.00 0.23 0.00 96 1009.0
20260509050031 23 129 0.0 1.6 0.00 0.23 0.00 96 1009.0
20260509044529 23 134 0.0 3.2 0.00 0.23 0.23 96 1008.9